Laredo, TX

11:51 AM CDT on April 29, 2017 (GMT -0500)
Laredo International

Weather History for KLRD - January, 2013

Change the Weather History Date:

Friday, January 25, 2013

  Actual Average Record
Temperature  
Mean Temperature 75 °F 57 °F  
Max Temperature 85 °F 68 °F 93 °F (1965)
Min Temperature 64 °F 47 °F 24 °F (1930)
Degree Days  
Heating Degree Days 0 9  
Month to date heating degree days 213 241  
Since 1 July heating degree days 415 631  
Cooling Degree Days 10 1  
Month to date cooling degree days 29 25  
Year to date cooling degree days 29 25  
Growing Degree Days 23 (Base 50)    
Moisture  
Dew Point 61 °F    
Average Humidity 73    
Maximum Humidity 96    
Minimum Humidity 41    
Precipitation  
Precipitation 0.00 in 0.03 in 1.47 in (1961)
Month to date precipitation 0.44 0.73  
Year to date precipitation 0.44 0.73  
Sea Level Pressure  
Sea Level Pressure 30.08 in    
Wind  
Wind Speed 7 mph (SSE)    
Max Wind Speed 17 mph    
Max Gust Speed 20 mph    
Visibility 9 miles    
Events      
T = Trace of Precipitation, MM = Missing Value Source: NWS Daily Summary

Daily Weather History Graph

Daily Weather History Graph

Search for Another Location

Airport or City:

Trip Planner

Search our weather history database for the weather conditions in past years. The results will help you decide how hot, cold, wet, or windy it might be!

Date:

Astronomy

Jan. 25, 2013 Rise Set
Actual Time 7:27 AM CST 6:13 PM CST
Civil Twilight 7:02 AM CST 6:38 PM CST
Nautical Twilight 6:34 AM CST 7:06 PM CST
Astronomical Twilight 6:06 AM CST 7:34 PM CST
Moon 5:11 PM CST (1/25) 6:07 AM CST (1/25)
Length of Visible Light 11h 35m
Length of Day
10h 46m
Waxing Gibbous, 98% of the Moon is Illuminated
Jan 25
Waxing Gibbous
Jan 26
Full
Feb 3
Last Quarter
Feb 10
New
Feb 17
First Quarter

Hourly Weather History & Observations

Time (CST) Temp. Heat Index Dew Point Humidity Pressure Visibility Wind Dir Wind Speed Gust Speed Precip Events Conditions
12:56 AM 66.9 °F - 61.9 °F 84% 30.11 in 10.0 mi SSE 13.8 mph - N/A   Clear
1:56 AM 64.9 °F - 61.9 °F 90% 30.11 in 10.0 mi SSE 11.5 mph - N/A   Clear
2:56 AM 63.9 °F - 61.9 °F 93% 30.08 in 9.0 mi SSE 12.7 mph - N/A   Clear
3:12 AM 64.4 °F - 62.6 °F 94% 30.11 in 9.0 mi SSE 12.7 mph - N/A   Partly Cloudy
3:33 AM 64.4 °F - 62.6 °F 94% 30.11 in 9.0 mi SSE 11.5 mph - N/A   Mostly Cloudy
3:56 AM 63.9 °F - 63.0 °F 97% 30.07 in 10.0 mi SSE 11.5 mph - N/A   Mostly Cloudy
4:56 AM 63.9 °F - 63.0 °F 97% 30.06 in 8.0 mi SSE 8.1 mph - N/A   Overcast
5:56 AM 64.9 °F - 63.0 °F 93% 30.07 in 8.0 mi SSE 10.4 mph - N/A   Overcast
6:56 AM 64.9 °F - 61.9 °F 90% 30.09 in 8.0 mi South 10.4 mph - N/A   Overcast
7:56 AM 64.9 °F - 63.0 °F 93% 30.11 in 7.0 mi South 5.8 mph - N/A   Overcast
8:56 AM 64.9 °F - 61.9 °F 90% 30.12 in 8.0 mi South 10.4 mph - N/A   Overcast
9:56 AM 66.9 °F - 61.9 °F 84% 30.14 in 9.0 mi South 5.8 mph - N/A   Overcast
10:43 AM 66.2 °F - 60.8 °F 83% 30.17 in 9.0 mi South 6.9 mph - N/A   Overcast
10:56 AM 66.9 °F - 61.9 °F 84% 30.14 in 9.0 mi SSE 5.8 mph - N/A   Overcast
11:56 AM 70.9 °F - 61.0 °F 71% 30.13 in 10.0 mi Variable 4.6 mph - N/A   Mostly Cloudy
12:06 PM 73.4 °F - 60.8 °F 65% 30.15 in 10.0 mi South 5.8 mph - N/A   Scattered Clouds
12:56 PM 75.9 °F - 61.0 °F 60% 30.09 in 10.0 mi Variable 3.5 mph - N/A   Scattered Clouds
1:56 PM 79.9 °F - 61.0 °F 52% 30.05 in 10.0 mi Variable 4.6 mph - N/A   Clear
2:56 PM 81.9 °F 82.1 °F 59.0 °F 46% 30.03 in 10.0 mi Calm Calm - N/A   Clear
3:56 PM 82.9 °F 82.8 °F 59.0 °F 44% 30.01 in 10.0 mi Calm Calm - N/A   Clear
4:56 PM 83.8 °F 83.3 °F 57.9 °F 41% 30.01 in 10.0 mi SSE 4.6 mph - N/A   Clear
5:56 PM 81.9 °F 81.6 °F 56.8 °F 42% 30.00 in 10.0 mi SE 4.6 mph - N/A   Clear
6:56 PM 77.0 °F - 55.9 °F 48% 30.01 in 10.0 mi Calm Calm - N/A   Clear
7:56 PM 74.8 °F - 56.8 °F 53% 30.02 in 10.0 mi SE 5.8 mph - N/A   Clear
8:56 PM 73.9 °F - 57.9 °F 57% 30.03 in 10.0 mi SE 8.1 mph - N/A   Clear
9:56 PM 73.9 °F - 61.9 °F 66% 30.06 in 10.0 mi SSE 8.1 mph - N/A   Clear
10:56 PM 72.0 °F - 61.9 °F 70% 30.06 in 10.0 mi SSE 9.2 mph - N/A   Clear
11:56 PM 68.9 °F - 61.0 °F 76% 30.06 in 10.0 mi SE 8.1 mph - N/A   Clear